Location: Newark
(41.8083°N, 72.2500°W)
Time: 21:08:52
(UTC+00:00)

Courier 1B - Pass Details

Date: 07 December 2021
Orbit: 962 x 1209 km, 28.3° (Epoch: 19 January)

Event Time Altitude Azimuth Distance (km) Brightness Sun altitude
Rises 21:53:12 0° 248° (WSW) 4,068 13.5 -6.6°
Reaches altitude 10° 21:56:30 10° 238° (WSW) 3,078 11.8 -7.2°
Maximum altitude 22:02:45 28° 182° (S) 1,969 9.4 -8.3°
Drops below altitude 10° 22:08:45 10° 126° (SE) 2,935 9.7 -9.3°
Sets 22:11:49 0° 116° (ESE) 3,850 10.2 -9.8°
